Weather History for Prairie Du Chien, WI

Change the Weather History Date:

Friday, October 18, 2013

  Actual Average Record
Temperature  
Mean Temperature 46 °F -  
Max Temperature 52 °F 60 °F 86 °F (1950)
Min Temperature 39 °F 38 °F 20 °F (1952)
Degree Days  
Heating Degree Days 19    
Moisture  
Dew Point 35 °F    
Average Humidity 69    
Maximum Humidity 87    
Minimum Humidity 41    
Precipitation  
Precipitation 0.00 in - - ()
Sea Level Pressure  
Sea Level Pressure 29.91 in    
Wind  
Wind Speed 6 mph (West)    
Max Wind Speed 18 mph    
Max Gust Speed 25 mph    
Visibility 10 miles    
Events      
Averages and records for this station are not official NWS values.
T = Trace of Precipitation, MM = Missing Value Source: NWS Daily Summary

Daily Weather History Graph

Daily Weather History Graph

Search for Another Location

Airport:

Trip Planner

Search our weather history database for the weather conditions in past years. The results will help you decide how hot, cold, wet, or windy it might be!

Date:

Astronomy

Oct. 18, 2013 Rise Set
Actual Time 7:21 AM CDT 6:16 PM CDT
Civil Twilight 6:53 AM CDT 6:45 PM CDT
Nautical Twilight 6:20 AM CDT 7:18 PM CDT
Astronomical Twilight 5:47 AM CDT 7:50 PM CDT
Moon 6:05 PM CDT (10/18) 6:57 AM CDT (10/18)
Length of Visible Light 11h 52m
Length of Day
10h 54m
Full, 100% of the Moon is Illuminated
Oct 18
Full
Oct 18
Full
Oct 26
Last Quarter
Nov 3
New
Nov 9
First Quarter

Hourly Weather History & Observations

Time (CDT) Temp. Windchill Dew Point Humidity Pressure Visibility Wind Dir Wind Speed Gust Speed Precip Events Conditions
12:15 AM 44.2 °F - 40.5 °F 87% 29.82 in 10.0 mi Calm Calm - N/A   Overcast
12:35 AM 45.9 °F - 41.2 °F 84% 29.82 in 10.0 mi Calm Calm - N/A   Overcast
12:55 AM 47.5 °F - 39.2 °F 73% 29.83 in 10.0 mi WNW 3.5 mph - N/A   Mostly Cloudy
1:15 AM 47.3 °F - 39.2 °F 73% 29.83 in 10.0 mi Calm Calm - N/A   Mostly Cloudy
1:35 AM 47.7 °F - 40.5 °F 76% 29.83 in 10.0 mi Calm Calm - N/A   Overcast
1:55 AM 48.0 °F - 42.1 °F 80% 29.83 in 10.0 mi West 4.6 mph - N/A   Overcast
2:15 AM 47.8 °F - 42.3 °F 81% 29.83 in 10.0 mi WSW 4.6 mph - N/A   Overcast
2:35 AM 47.5 °F - 42.3 °F 82% 29.84 in 10.0 mi WSW 5.8 mph - N/A   Overcast
2:55 AM 46.9 °F - 41.7 °F 82% 29.84 in 10.0 mi West 11.5 mph - N/A   Overcast
3:15 AM 46.4 °F 44.3 °F 41.5 °F 83% 29.85 in 10.0 mi West 4.6 mph - N/A   Overcast
3:35 AM 45.7 °F 40.6 °F 40.6 °F 83% 29.85 in 10.0 mi West 10.4 mph 17.3 mph N/A   Overcast
3:55 AM 45.1 °F 40.8 °F 40.5 °F 84% 29.85 in 10.0 mi West 8.1 mph 17.3 mph N/A   Overcast
4:15 AM 45.0 °F 40.1 °F 40.1 °F 83% 29.85 in 10.0 mi West 9.2 mph - N/A   Overcast
4:35 AM 44.8 °F 40.4 °F 40.1 °F 84% 29.86 in 10.0 mi West 8.1 mph - N/A   Overcast
4:55 AM 44.6 °F 40.2 °F 39.6 °F 82% 29.85 in 10.0 mi West 8.1 mph - N/A   Overcast
5:15 AM 44.6 °F 39.2 °F 39.4 °F 82% 29.86 in 10.0 mi West 10.4 mph - N/A   Overcast
5:35 AM 44.6 °F 40.2 °F 39.2 °F 81% 29.86 in 10.0 mi West 8.1 mph - N/A   Overcast
5:55 AM 44.6 °F 40.2 °F 38.8 °F 80% 29.87 in 10.0 mi West 8.1 mph - N/A   Overcast
6:15 AM 44.6 °F 40.2 °F 38.5 °F 79% 29.88 in 10.0 mi West 8.1 mph - N/A   Overcast
6:35 AM 44.2 °F 38.4 °F 38.5 °F 80% 29.88 in 10.0 mi WSW 11.5 mph - N/A   Overcast
6:55 AM 43.9 °F 37.9 °F 38.3 °F 81% 29.89 in 10.0 mi West 11.5 mph 17.3 mph N/A   Overcast
7:15 AM 43.9 °F 38.3 °F 38.1 °F 80% 29.89 in 10.0 mi West 10.4 mph - N/A   Overcast
7:35 AM 43.9 °F 37.9 °F 38.1 °F 80% 29.89 in 10.0 mi West 11.5 mph - N/A   Overcast
7:55 AM 44.1 °F 39.5 °F 37.9 °F 79% 29.90 in 10.0 mi West 8.1 mph - N/A   Overcast
8:15 AM 44.1 °F 36.8 °F 36.5 °F 75% 29.91 in 10.0 mi West 16.1 mph 25.3 mph N/A   Overcast
8:35 AM 44.4 °F 37.2 °F 36.7 °F 74% 29.92 in 10.0 mi West 16.1 mph 20.7 mph N/A   Overcast
8:55 AM 44.4 °F 37.2 °F 36.1 °F 73% 29.93 in 10.0 mi WNW 16.1 mph 25.3 mph N/A   Overcast
9:15 AM 44.6 °F 37.4 °F 36.1 °F 72% 29.94 in 10.0 mi West 16.1 mph - N/A   Overcast
9:35 AM 44.8 °F 38.3 °F 36.0 °F 71% 29.95 in 10.0 mi WNW 13.8 mph - N/A   Overcast
9:55 AM 45.0 °F 38.2 °F 36.0 °F 71% 29.95 in 10.0 mi WNW 15.0 mph 20.7 mph N/A   Overcast
10:15 AM 45.5 °F 39.9 °F 36.1 °F 70% 29.94 in 10.0 mi WNW 11.5 mph - N/A   Overcast
10:35 AM 46.0 °F 40.6 °F 36.5 °F 69% 29.95 in 10.0 mi WNW 11.5 mph 17.3 mph N/A   Overcast
10:55 AM 46.6 °F - 35.6 °F 66% 29.95 in 10.0 mi WNW 16.1 mph 20.7 mph N/A   Overcast
11:15 AM 46.9 °F - 34.7 °F 62% 29.95 in 10.0 mi WNW 12.7 mph 21.9 mph N/A   Overcast
11:35 AM 47.3 °F - 34.2 °F 60% 29.95 in 10.0 mi WNW 18.4 mph 23.0 mph N/A   Overcast
11:55 AM 48.9 °F - 33.8 °F 56% 29.96 in 10.0 mi WNW 16.1 mph 21.9 mph N/A   Overcast
12:15 PM 48.0 °F - 34.0 °F 58% 29.96 in 10.0 mi NW 13.8 mph - N/A   Overcast
12:35 PM 50.2 °F - 33.8 °F 53% 29.95 in 10.0 mi NW 13.8 mph 20.7 mph N/A   Mostly Cloudy
12:55 PM 49.1 °F - 33.8 °F 56% 29.96 in 10.0 mi West 9.2 mph 16.1 mph N/A   Overcast
1:15 PM 49.1 °F - 32.7 °F 53% 29.96 in 10.0 mi NW 9.2 mph 19.6 mph N/A   Overcast
1:35 PM 49.5 °F - 32.0 °F 51% 29.95 in 10.0 mi NW 12.7 mph 19.6 mph N/A   Overcast
1:55 PM 50.2 °F - 31.8 °F 49% 29.93 in 10.0 mi NW 11.5 mph - N/A   Overcast
2:15 PM 50.7 °F - 31.3 °F 47% 29.93 in 10.0 mi West 15.0 mph - N/A   Overcast
2:35 PM 52.0 °F - 30.9 °F 45% 29.93 in 10.0 mi WNW 6.9 mph - N/A   Overcast
2:55 PM 50.4 °F - 29.8 °F 45% 29.93 in 10.0 mi WNW 12.7 mph 17.3 mph N/A   Overcast
3:15 PM 50.9 °F - 28.8 °F 43% 29.92 in 10.0 mi NW 11.5 mph - N/A   Mostly Cloudy
3:35 PM 51.8 °F - 28.8 °F 41% 29.92 in 10.0 mi West 8.1 mph - N/A   Overcast
3:55 PM 51.3 °F - 28.4 °F 41% 29.93 in 10.0 mi WNW 8.1 mph - N/A   Overcast
4:15 PM 51.1 °F - 28.9 °F 43% 29.93 in 10.0 mi WNW 8.1 mph - N/A   Overcast
4:35 PM 50.5 °F - 28.0 °F 42% 29.93 in 10.0 mi WNW 9.2 mph - N/A   Mostly Cloudy
4:55 PM 50.4 °F - 28.6 °F 43% 29.93 in 10.0 mi WNW 8.1 mph - N/A   Scattered Clouds
5:15 PM 50.2 °F - 28.4 °F 43% 29.93 in 10.0 mi WNW 9.2 mph - N/A   Scattered Clouds
5:35 PM 49.6 °F - 28.6 °F 44% 29.93 in 10.0 mi WNW 5.8 mph - N/A   Clear
5:55 PM 48.9 °F - 29.3 °F 47% 29.94 in 10.0 mi West 4.6 mph - N/A   Clear
6:15 PM 47.5 °F - 29.8 °F 50% 29.94 in 10.0 mi WSW 4.6 mph - N/A   Clear
6:35 PM 46.2 °F - 32.0 °F 58% 29.95 in 10.0 mi Calm Calm - N/A   Scattered Clouds
6:55 PM 44.4 °F 42.9 °F 33.4 °F 65% 29.95 in 10.0 mi SW 3.5 mph - N/A   Clear
7:15 PM 43.5 °F - 34.2 °F 70% 29.95 in 10.0 mi Calm Calm - N/A   Scattered Clouds
7:35 PM 42.8 °F - 34.5 °F 73% 29.95 in 10.0 mi Calm Calm - N/A   Clear
7:55 PM 42.3 °F - 34.5 °F 74% 29.95 in 10.0 mi Calm Calm - N/A   Clear
8:15 PM 41.5 °F - 35.1 °F 78% 29.95 in 10.0 mi Calm Calm - N/A   Clear
8:35 PM 41.7 °F - 35.6 °F 79% 29.95 in 10.0 mi Calm Calm - N/A   Clear
8:55 PM 41.9 °F - 35.6 °F 78% 29.94 in 10.0 mi Calm Calm - N/A   Clear
9:15 PM 41.9 °F - 35.1 °F 77% 29.94 in 10.0 mi Calm Calm - N/A   Clear
9:35 PM 41.5 °F - 35.1 °F 78% 29.94 in 10.0 mi Calm Calm - N/A   Clear
9:55 PM 41.0 °F - 35.2 °F 80% 29.93 in 10.0 mi Calm Calm - N/A   Clear
10:15 PM 41.0 °F - 35.1 °F 79% 29.94 in 10.0 mi Calm Calm - N/A   Clear
10:35 PM 41.0 °F - 35.1 °F 79% 29.93 in 10.0 mi Calm Calm - N/A   Clear
10:55 PM 40.5 °F - 34.7 °F 80% 29.93 in 10.0 mi Calm Calm - N/A   Clear
11:15 PM 40.5 °F - 35.6 °F 83% 29.93 in 10.0 mi Calm Calm - N/A   Clear
11:35 PM 40.1 °F - 35.2 °F 83% 29.92 in 10.0 mi Calm Calm - N/A   Clear
11:55 PM 39.6 °F - 35.2 °F 85% 29.92 in 10.0 mi Calm Calm - N/A   Clear